GW5391 Weather Reports


Display with metric or nautical units.
time (UTC)temp
F
wind
direction
speed
MPH
gust
MPH
rain 1hr
in
rain 24hr
in
rain mn
in
humidity
%
barometer
mb
20260504173004 81 6 7.0 11.0 0.00 0.00 0.00 45 1015.3
20260504172503 81 358 6.0 10.0 0.00 0.00 0.00 46 1015.3
20260504172004 81 1 5.0 10.0 0.00 0.00 0.00 46 1015.4
20260504171503 80 356 5.0 10.0 0.00 0.00 0.00 45 1015.4
20260504170505 80 358 6.0 10.0 0.00 0.00 0.00 45 1015.5
20260504151004 77 27 8.0 16.0 0.00 0.00 0.00 48 1016.6
20260504141004 75 35 8.0 15.0 0.00 0.00 0.00 62 1016.4
20260504140504 75 27 9.0 16.0 0.00 0.00 0.00 62 1016.4
20260504110505 66 18 4.0 7.0 0.00 0.00 0.00 81 1015.2
20260504100504 66 17 5.0 9.0 0.00 0.00 0.00 82 1014.8
20260504082004 67 8 4.0 8.0 0.00 0.00 0.00 80 1014.8
20260504081503 67 8 4.0 6.0 0.00 0.00 0.00 79 1014.9
20260504081003 67 11 4.0 8.0 0.00 0.00 0.00 79 1014.8
20260504050503 68 41 3.0 5.0 0.00 0.00 0.00 75 1016.0
20260504045003 68 28 1.0 3.0 0.00 0.00 0.00 75 1016.2
20260504044003 68 37 2.0 5.0 0.00 0.00 0.00 75 1016.2
20260504043503 69 40 2.0 5.0 0.00 0.00 0.00 74 1016.2
20260504043005 69 23 2.0 4.0 0.00 0.00 0.00 74 1016.3
20260504042504 69 20 2.0 4.0 0.00 0.00 0.00 74 1016.4
20260504041504 69 29 2.0 5.0 0.00 0.00 0.00 74 1016.3
20260504041004 69 32 2.0 5.0 0.00 0.00 0.00 74 1016.3
20260504040005 69 36 3.0 6.0 0.00 0.01 0.00 73 1016.3
20260504035504 69 31 3.0 5.0 0.00 0.01 0.01 73 1016.4
20260504035004 69 37 3.0 8.0 0.00 0.02 0.01 73 1016.5
20260504034503 69 38 4.0 8.0 0.00 0.02 0.01 73 1016.4
20260504034004 69 33 5.0 8.0 0.00 0.02 0.01 72 1016.4
20260504033504 69 34 5.0 9.0 0.00 0.02 0.01 72 1016.5
20260504033004 69 40 5.0 10.0 0.00 0.02 0.01 72 1016.4
20260504032503 70 43 6.0 10.0 0.00 0.02 0.01 72 1016.4
20260504032003 70 48 6.0 10.0 0.00 0.02 0.01 72 1016.4
20260504031503 70 53 5.0 10.0 0.00 0.02 0.01 72 1016.4
20260504031004 70 47 6.0 10.0 0.00 0.02 0.01 72 1016.4
20260504030504 70 39 6.0 10.0 0.00 0.02 0.01 72 1016.3
20260504030004 70 35 6.0 10.0 0.00 0.02 0.01 72 1016.3
20260504025504 70 43 5.0 10.0 0.00 0.02 0.01 72 1016.3
20260504024004 70 37 5.0 10.0 0.00 0.02 0.01 72 1016.4
20260504023504 70 41 6.0 11.0 0.00 0.02 0.01 71 1016.4
20260504021004 70 39 3.0 7.0 0.00 0.02 0.01 71 1016.0
20260504020504 70 45 4.0 9.0 0.00 0.02 0.01 71 1015.9
20260504020004 70 54 5.0 10.0 0.00 0.02 0.01 71 1015.9
20260504015503 70 63 5.0 11.0 0.00 0.02 0.01 71 1015.9
20260504015004 70 65 6.0 11.0 0.00 0.02 0.01 70 1015.8
20260504014504 70 59 6.0 10.0 0.00 0.02 0.01 70 1015.7
20260504014004 70 65 7.0 13.0 0.00 0.02 0.01 70 1015.7
20260504013003 70 62 6.0 13.0 0.00 0.02 0.01 70 1015.5
20260504012503 71 58 5.0 10.0 0.00 0.02 0.01 70 1015.6
20260504012003 71 67 7.0 13.0 0.00 0.02 0.01 70 1015.6
20260504011504 71 71 7.0 13.0 0.00 0.02 0.01 69 1015.5
20260504011004 71 73 7.0 12.0 0.00 0.02 0.01 69 1015.4
20260504010504 71 69 6.0 10.0 0.00 0.02 0.01 69 1015.4
20260504010004 71 64 7.0 13.0 0.00 0.02 0.01 70 1015.4
20260504005504 71 67 6.0 13.0 0.00 0.02 0.01 69 1015.4
20260504005004 71 62 5.0 11.0 0.00 0.02 0.01 69 1015.4
20260504004503 72 58 6.0 11.0 0.00 0.02 0.01 68 1015.3
20260504004004 72 61 6.0 11.0 0.00 0.02 0.01 68 1015.3
20260504003504 72 63 5.0 11.0 0.00 0.02 0.01 67 1015.2
20260504003003 72 69 6.0 11.0 0.00 0.02 0.01 67 1015.2
20260504002505 72 77 6.0 11.0 0.00 0.02 0.01 67 1015.1
20260504002004 72 82 7.0 14.0 0.00 0.02 0.01 66 1014.9
20260504001505 72 79 7.0 14.0 0.00 0.02 0.01 66 1014.9
20260504001004 73 73 8.0 17.0 0.00 0.02 0.01 65 1014.9
20260504000504 73 68 7.0 17.0 0.00 0.02 0.01 65 1014.8
20260504000004 73 66 6.0 13.0 0.00 0.02 0.01 64 1014.8
20260503235504 73 67 7.0 13.0 0.00 0.02 0.01 64 1014.8
20260503235004 74 67 8.0 14.0 0.00 0.02 0.01 63 1014.8
20260503234504 74 65 7.0 14.0 0.00 0.02 0.01 63 1014.7
20260503233004 74 71 6.0 13.0 0.00 0.02 0.01 61 1014.6
20260503232504 74 84 7.0 13.0 0.00 0.02 0.01 61 1014.5
20260503232004 74 78 8.0 13.0 0.00 0.02 0.01 60 1014.5
20260503231003 75 67 7.0 15.0 0.00 0.02 0.01 60 1014.6
20260503230504 75 64 7.0 12.0 0.00 0.02 0.01 60 1014.5
20260503230004 75 58 7.0 14.0 0.00 0.02 0.01 60 1014.6
20260503225504 75 55 8.0 14.0 0.00 0.02 0.01 59 1014.6
20260503223504 76 42 7.0 12.0 0.00 0.02 0.01 58 1014.5
20260503223004 77 47 8.0 16.0 0.00 0.02 0.01 57 1014.6
20260503222503 77 67 8.0 16.0 0.00 0.02 0.01 57 1014.5
20260503222004 78 65 7.0 15.0 0.00 0.02 0.01 56 1014.4
20260503221504 78 45 8.0 16.0 0.00 0.02 0.01 57 1014.4
20260503221004 78 39 8.0 16.0 0.00 0.02 0.01 57 1014.4
20260503220504 78 43 9.0 16.0 0.00 0.02 0.01 56 1014.4
20260503220003 78 41 8.0 16.0 0.00 0.02 0.01 55 1014.3
20260503215504 79 24 7.0 13.0 0.00 0.02 0.01 55 1014.4
20260503214504 79 18 5.0 12.0 0.00 0.03 0.01 54 1014.3
20260503214004 79 17 6.0 11.0 0.00 0.03 0.01 55 1014.2
20260503213504 79 21 7.0 12.0 0.00 0.03 0.01 55 1014.3
20260503213003 79 25 7.0 12.0 0.00 0.03 0.01 55 1014.3
20260503212004 79 22 7.0 13.0 0.00 0.04 0.01 55 1014.2
20260503211503 79 25 7.0 12.0 0.00 0.04 0.01 54 1014.2
20260503211004 80 17 7.0 11.0 0.00 0.04 0.01 54 1014.2
20260503210003 80 2 6.0 11.0 0.00 0.04 0.01 55 1014.2
20260503205505 80 359 7.0 11.0 0.00 0.04 0.01 54 1014.2
20260503205004 80 15 7.0 12.0 0.00 0.04 0.01 54 1014.3
20260503204504 80 17 6.0 13.0 0.00 0.04 0.01 55 1014.3
20260503204004 80 1 6.0 13.0 0.00 0.04 0.01 55 1014.4
20260503203004 80 1 6.0 11.0 0.00 0.04 0.01 55 1014.6
20260503202503 80 3 6.0 10.0 0.00 0.04 0.01 55 1014.6
20260503202004 80 5 6.0 9.0 0.00 0.05 0.01 55 1014.6
20260503201003 80 6 6.0 13.0 0.00 0.08 0.01 56 1014.7
20260503200503 80 13 6.0 13.0 0.00 0.09 0.01 55 1014.7
20260503200004 80 8 6.0 12.0 0.00 0.10 0.01 55 1014.8
20260503195503 80 6 6.0 13.0 0.00 0.11 0.01 56 1014.8
20260503195004 80 8 7.0 13.0 0.00 0.12 0.01 55 1014.8
20260503194504 80 4 6.0 12.0 0.00 0.12 0.01 56 1014.9
20260503193504 80 10 7.0 13.0 0.00 0.12 0.01 56 1015.1
20260503193004 80 358 7.0 13.0 0.00 0.15 0.01 57 1015.3
20260503192003 79 2 7.0 12.0 0.00 0.20 0.01 57 1015.5
20260503191504 79 3 8.0 14.0 0.00 0.22 0.01 58 1015.5
20260503191004 79 1 7.0 14.0 0.00 0.23 0.01 59 1015.7
20260503190504 78 357 7.0 12.0 0.00 0.24 0.01 60 1015.7
20260503190004 78 9 7.0 14.0 0.00 0.24 0.01 60 1015.8
20260503185504 78 18 8.0 14.0 0.00 0.24 0.01 60 1015.9
20260503185004 78 17 7.0 14.0 0.00 0.24 0.01 58 1015.8
20260503184504 78 20 7.0 13.0 0.00 0.24 0.01 60 1015.9
20260503184004 78 15 6.0 13.0 0.00 0.24 0.01 59 1015.9
20260503183504 78 8 5.0 13.0 0.00 0.24 0.01 60 1016.1
20260503183003 78 6 6.0 11.0 0.00 0.24 0.01 61 1016.1
20260503182505 78 11 7.0 12.0 0.00 0.24 0.01 62 1016.2
20260503181506 78 12 6.0 13.0 0.00 0.25 0.01 60 1016.3
20260503181004 78 4 6.0 12.0 0.00 0.33 0.01 63 1016.4
20260503180504 78 359 7.0 12.0 0.00 0.33 0.01 62 1016.3
20260503175503 77 7 6.0 11.0 0.00 0.33 0.01 62 1016.4
20260503175003 77 11 7.0 12.0 0.00 0.33 0.01 62 1016.4
20260503174504 77 15 8.0 12.0 0.00 0.33 0.01 63 1016.5
20260503174004 77 13 7.0 14.0 0.00 0.33 0.01 64 1016.5
20260503173504 77 14 7.0 14.0 0.00 0.33 0.01 65 1016.5